Vero Beach, FL

7:54 PM EST on December 04, 2016 (GMT -0500)
Vero Beach Municipal

Weather History for KVRB - February, 2013

Change the Weather History Date:

Wednesday, February 20, 2013

  Actual Average Record
Temperature  
Mean Temperature 65 °F 65 °F  
Max Temperature 75 °F 75 °F 87 °F (1975)
Min Temperature 54 °F 55 °F 30 °F (2015)
Degree Days  
Heating Degree Days 0 3  
Month to date heating degree days 80 74  
Since 1 July heating degree days 228 361  
Cooling Degree Days 0 3  
Month to date cooling degree days 40 52  
Year to date cooling degree days 174 113  
Growing Degree Days 14 (Base 50)    
Moisture  
Dew Point 60 °F    
Average Humidity 82    
Maximum Humidity 100    
Minimum Humidity 64    
Precipitation  
Precipitation 0.00 in 0.09 in 1.04 in (1957)
Month to date precipitation 0.99 1.85  
Year to date precipitation 2.51 4.35  
Sea Level Pressure  
Sea Level Pressure 30.10 in    
Wind  
Wind Speed 6 mph (North)    
Max Wind Speed 10 mph    
Max Gust Speed -    
Visibility 9 miles    
Events      
T = Trace of Precipitation, MM = Missing Value Source: NWS Daily Summary

Daily Weather History Graph

Daily Weather History Graph

Search for Another Location

Airport or City:

Trip Planner

Search our weather history database for the weather conditions in past years. The results will help you decide how hot, cold, wet, or windy it might be!

Date:

Astronomy

Feb. 20, 2013 Rise Set
Actual Time 6:54 AM EST 6:16 PM EST
Civil Twilight 6:30 AM EST 6:40 PM EST
Nautical Twilight 6:03 AM EST 7:07 PM EST
Astronomical Twilight 5:36 AM EST 7:34 PM EST
Moon 1:51 PM EST (2/20) 2:58 AM EST (2/20)
Length of Visible Light 12h 09m
Length of Day
11h 22m
Waxing Gibbous, 76% of the Moon is Illuminated
Feb 20
Waxing Gibbous
Feb 25
Full
Mar 4
Last Quarter
Mar 11
New
Mar 19
First Quarter

Hourly Weather History & Observations

Time (EST) Temp. Dew Point Humidity Pressure Visibility Wind Dir Wind Speed Gust Speed Precip Events Conditions
12:53 AM 59.0 °F 55.9 °F 90% 30.10 in 10.0 mi Calm Calm - N/A   Clear
1:53 AM 59.0 °F 55.0 °F 87% 30.10 in 10.0 mi West 4.6 mph - N/A   Clear
2:53 AM 57.0 °F 54.0 °F 89% 30.09 in 10.0 mi Calm Calm - N/A   Clear
3:53 AM 55.9 °F 54.0 °F 93% 30.08 in 10.0 mi WNW 5.8 mph - N/A   Clear
4:53 AM 57.0 °F 54.0 °F 89% 30.08 in 10.0 mi West 5.8 mph - N/A   Clear
5:53 AM 55.0 °F 53.1 °F 93% 30.09 in 8.0 mi WNW 5.8 mph - N/A   Clear
6:53 AM 57.0 °F 55.0 °F 93% 30.11 in 8.0 mi West 3.5 mph - N/A   Clear
7:37 AM 59.0 °F 57.2 °F 94% 30.12 in 5.0 mi NW 5.8 mph - N/A   Partly Cloudy
7:50 AM 60.8 °F 60.8 °F 100% 30.12 in 6.0 mi NW 6.9 mph - N/A   Mostly Cloudy
7:53 AM 61.0 °F 60.1 °F 97% 30.12 in 2.0 mi NW 8.1 mph - N/A   Mostly Cloudy
8:14 AM 62.6 °F 60.8 °F 94% 30.12 in 5.0 mi NNW 6.9 mph - N/A   Partly Cloudy
8:53 AM 66.0 °F 62.1 °F 87% 30.13 in 9.0 mi NNW 6.9 mph - N/A   Clear
9:53 AM 70.0 °F 61.0 °F 73% 30.13 in 10.0 mi North 8.1 mph - N/A   Clear
10:53 AM 73.0 °F 63.0 °F 71% 30.12 in 10.0 mi ENE 8.1 mph - N/A   Scattered Clouds
11:53 AM 73.0 °F 63.0 °F 71% 30.12 in 10.0 mi NNE 9.2 mph - N/A   Scattered Clouds
12:00 PM 73.4 °F 62.6 °F 69% 30.12 in 10.0 mi North 9.2 mph - N/A   Mostly Cloudy
12:38 PM 73.4 °F 62.6 °F 69% 30.11 in 10.0 mi NE 11.5 mph - N/A   Scattered Clouds
12:53 PM 73.0 °F 62.1 °F 68% 30.10 in 10.0 mi NE 10.4 mph - N/A   Mostly Cloudy
1:53 PM 73.9 °F 62.1 °F 66% 30.06 in 10.0 mi ENE 9.2 mph - N/A   Clear
2:53 PM 73.9 °F 62.1 °F 66% 30.04 in 10.0 mi ENE 8.1 mph - N/A   Clear
3:53 PM 73.9 °F 60.1 °F 62% 30.04 in 10.0 mi East 6.9 mph - N/A   Clear
4:53 PM 72.0 °F 62.1 °F 71% 30.05 in 10.0 mi ENE 5.8 mph - N/A   Clear
5:53 PM 69.1 °F 62.1 °F 78% 30.07 in 10.0 mi NNE 9.2 mph - N/A   Scattered Clouds
6:53 PM 68.0 °F 62.1 °F 81% 30.08 in 10.0 mi NNE 5.8 mph - N/A   Overcast
7:53 PM 66.0 °F 62.1 °F 87% 30.08 in 10.0 mi NNE 3.5 mph - N/A   Scattered Clouds
8:53 PM 66.0 °F 62.1 °F 87% 30.09 in 10.0 mi NE 4.6 mph - N/A   Clear
9:53 PM 66.0 °F 62.1 °F 87% 30.10 in 10.0 mi North 5.8 mph - N/A   Clear
10:53 PM 63.0 °F 61.0 °F 93% 30.10 in 9.0 mi Calm Calm - N/A   Clear
11:53 PM 64.0 °F 62.1 °F 93% 30.09 in 10.0 mi North 4.6 mph - N/A   Clear